Regional Weather Roundup
Issued by NWS San Diego, CA

Home | Current Version | Previous Version | Text Only | Print | Product List | Glossary On
Versions: 1 2 3 4 5 6 7 8 9 10 11 12 13 14 15 16 17 18 19 20 21 22 23 24 25 26 27 28 29 30 31 32 33 34 35 36 37 38 39 40 41 42 43 44 45 46 47 48 49 50
143
ASUS46 KSGX 301711
RWRSGX

SAN DIEGO HOURLY WEATHER ROUNDUP
NATIONAL WEATHER SERVICE SAN DIEGO CA
1000 AM PDT SUN APR 30 2017

NOTE: "FAIR" INDICATES FEW OR NO CLOUDS BELOW 12,000 FEET WITH NO
SIGNIFICANT WEATHER AND/OR OBSTRUCTIONS TO VISIBILITY.

CAZ042-043-060-061-PZZ750-775-301800-

GREATER SAN DIEGO AREA

CITY           SKY/WX    TMP DP  RH WIND       PRES   REMARKS
SAN DIEGO AP   SUNNY     78  28  16 CALM      30.08S
NATIONAL CITY    N/A     78  32  18 CALM      30.07S
CHULA VISTA      N/A     78  39  25 E2        29.99S
IMPERIAL BEACH SUNNY     82  22  11 CALM      30.07S
BROWN FIELD    SUNNY     80  22  11 VRB3      30.08S
MIRAMAR MCAS   MOSUNNY   84  22  10 N5        30.08R
MONTGOMERY FLD SUNNY     80  21  11 VRB3      30.08S

$$

NORTH SAN DIEGO COUNTY

CITY           SKY/WX    TMP DP  RH WIND       PRES   REMARKS
CAMP PENDLETON SUNNY     79  33  19 CALM      30.07S
OCEANSIDE AP   SUNNY     79  34  19 CALM      30.07R
OCEANSIDE HBR    N/A     64  52  64 W3        30.11R
VISTA            N/A     74  42  30 CALM      30.06S
CARLSBAD       SUNNY     76  34  21 W5        30.07S
DEL MAR          N/A     72  43  35 SW1       30.10R
LA JOLLA SCRIP   N/A     69  33  25 W2        30.08R
FALLBROOK        N/A     79  32  18 CALM      30.05S
ESCONDIDO        N/A     82  33  17 CALM      30.08S
SAN MARCOS       N/A     78  30  17 E1        30.08S
POWAY            N/A     81  35  19 CALM      30.09S

$$

EAST SAN DIEGO COUNTY

CITY           SKY/WX    TMP DP  RH WIND       PRES   REMARKS
RAMONA         SUNNY     78  23  13 W3        30.11R
SANTEE LAKES     N/A     76  36  23 CALM      30.07S
LA MESA          N/A     77  26  15 CALM      30.00S
JAMUL            N/A     80  30  16 CALM      30.07F
DESCANSO N       N/A     69  27  20 CALM      30.08R
MT. LAGUNA OBS   N/A     59  17  19 NE1       29.79S
CAMPO            N/A     74  21  13 VRB5      30.10S

$$

ORANGE COUNTY AND THE LOS ANGELES BASIN

CITY           SKY/WX    TMP DP  RH WIND       PRES   REMARKS
JOHN WAYNE AP  SUNNY     76  31  19 CALM      30.08F
LAGUNA BEACH     N/A     72  44  36 S3        30.04R
LAKE FOREST FR   N/A     76  26  15 N3        29.97R
HUNTINGTON BCH   N/A     77  42  28 CALM      30.09F
LOS ALAMITOS   SUNNY     75  31  20 SE3       30.08S
FULLERTON      SUNNY     77  26  15 S6        30.07F
LONG BEACH     SUNNY     76  25  15 S5        30.08F
L.A. AP        SUNNY     77  29  17 VRB6      30.08S
L.A. DOWNTOWN  SUNNY     80  24  12 SE5       30.07F

$$

THE INLAND EMPIRE

CITY           SKY/WX    TMP DP  RH WIND       PRES   REMARKS
CORONA         SUNNY     73  34  23 VRB3      30.10F
CHINO          SUNNY     75  33  21 S3        30.10F
ONTARIO        SUNNY     77  17  10 VRB5      30.10F
SAN BERNARDINO SUNNY    N/A N/A N/A CALM      30.11S
RIVERSIDE AP   SUNNY     76  28  17 SW5       30.10S
MORENO VALLEY    N/A     77  32  19 CALM      28.23R
MARCH ARB      SUNNY     74  19  12 SE3       30.12R
HORSETHIEF CYN   N/A     75  19  12 CALM      30.10R
PERRIS           N/A     75  34  22 NW2       30.14R
HEMET EAST       N/A     74  16  11 CALM      30.14R
FRENCH VALLEY  FAIR      73  25  16 CALM      30.13R
TEMECULA         N/A     68  41  38 CALM      30.17S

$$

SAN BERNARDINO AND RIVERSIDE COUNTY MOUNTAINS

CITY           SKY/WX    TMP DP  RH WIND       PRES   REMARKS
BIG BEAR AP    SUNNY     55   9  15 SE3       30.30S
ANGELUS OAKS     N/A     58  22  25 CALM      30.09R
PINE COVE        N/A     56  22  26 CALM      30.12R

$$

SOUTHERN DESERT INCLUDING THE COACHELLA VALLEY

CITY           SKY/WX    TMP DP  RH WIND       PRES   REMARKS
PALM SPRINGS   SUNNY     83  18   9 VRB5      30.08R
PALM DESERT      N/A     84  24  11 CALM      27.85R
THERMAL        SUNNY     85  21   9 VRB5      30.04R
BLYTHE         SUNNY     80  15   8 CALM      30.09R
IMPERIAL AP    SUNNY     81  28  14 N10       30.05R
EL CENTRO NAS  SUNNY     83  10   6 N10       30.07R
YUMA AZ        SUNNY     83  21  10 VRB3      30.05
MEXICALI       SUNNY     81  18   9 NW6       30.06R

$$

UPPER DESERT

CITY           SKY/WX    TMP DP  RH WIND       PRES   REMARKS
VICTORVILLE AP SUNNY     68  19  15 CALM      30.18F
HESPERIA         N/A     68  23  18 S1        30.26F
PALMDALE       SUNNY     71  24  17 VRB5      30.16F
LANCASTER      SUNNY     70  22  16 CALM      30.16F
EDWARDS AFB    SUNNY     64  24  21 CALM      30.14F
DAGGETT        SUNNY     72  22  15 W10       30.14F
29 PALMS N     SUNNY     72   9   8 CALM      30.22S
NEEDLES        SUNNY     78  20  11 NE10      30.12S

$$

REGIONAL REPORTS

CITY           SKY/WX    TMP DP  RH WIND       PRES   REMARKS
SANTA BARBARA  SUNNY     62  51  67 S5        30.08R
SANDBERG       SUNNY     69  18  14 CALM      30.22S
LAS VEGAS NV   SUNNY     70  12  10 NE8       30.16F
PHOENIX AZ     SUNNY     75  20  12 E6        30.05S
TIJUANA        SUNNY     77  18  10 CALM      30.10S
ENSENADA NW      N/A     80  32  17 SW3       30.03R

$$

OFFSHORE ISLANDS

CITY           SKY/WX    TMP DP  RH WIND       PRES   REMARKS
CATALINA ARPT  SUNNY     76  28  17 VRB5      30.13S
SAN NICOLAS IS SUNNY    N/A N/A N/A S5        30.09S

$$

MARINE AND OFFSHORE BUOY REPORTS

STATION/POSITION SKY/WX   TEMP    WIND        PRES    VSBY  SWELL
                          AIR SEA DIR/SP/G                  HT/PER/DIR
                          (F)     (DEG/KT/KT) (MB)    (MI)  (FT/S/D)
TANNER BANKS               56 56  290/ 10/ 10 1019.2R         5/300/11
S CLEMENTE BASIN           62 64  290/ 10/ 12 1018.7R         3/180/19
SAN NICOLAS IS.               54                N/A           3/200/18
SO. S. ROSA ISLA           53 53  300/ 12/ 14 1018.6R         5/270/11
W. S. BARBARA CH           54 53  320/ 17/ 19 1018.6R         5/300/ 8
M. S. BARBARA CH                  250/  4/  6 1019.4R
S. MONICA BASIN            62 61  110/  4/  4 1018.8
S PEDRO CHANNEL               58                N/A           2/270/11
CMP PENDLETON NS              60                N/A           2/210/18
OCEANSIDE OFFSHR              62                N/A           2/200/18
TORREY PINES OTR              64                N/A           3/200/18
POINT LOMA SOUTH              62                N/A           3/180/18

$$





USA.gov is the U.S. government's official web portal to all federal, state and local government web resources and services.